[[{"header":{"parameterUnit":"m.s-1","parameterCategory":1,"la1":30.2991,"la2":30.254,"lo1":-89.0895,"lo2":-89.0444,"dy":0.0017,"dx":0.0017,"nx":28,"ny":28,"refTime":"2024-02-11T03:00:00:Z","depth":0,"parameterNumber":2,"parameterNumberName":"U-component_of_WINDS"},"data":[0,0,0,0,0,0,0,0,0,0,0,0,0,0,0,0,0,0,0,0,0,0,0,0,0,0,0,0,0,0,0,0,0,0,0,0,0,0,0,0,0,0,0,0,0,0,0,0,0,0,0,0,0,0,0,0,0,0,-1.5819,-1.5818,0,-1.579,-1.579,-1.5789,-1.5756,-1.5756,-1.5755,-1.5755,-1.5726,-1.5725,-1.5725,0,0,0,0,0,0,0,0,0,0,0,0,0,-1.5845,-1.5845,-1.5819,-1.5818,-1.5818,-1.579,-1.579,-1.5789,-1.5757,-1.5756,-1.5755,-1.5755,-1.5726,-1.5725,-1.5725,0,0,0,0,0,0,0,0,0,0,0,0,0,-1.5827,-1.5845,-1.5819,-1.5798,-1.5796,-1.579,-1.579,-1.5789,-1.5757,-1.5756,-1.5755,-1.5755,-1.5726,-1.5726,-1.5725,-1.5737,0,0,-1.5724,-1.5723,0,0,0,0,0,0,0,0,-1.5828,-1.5826,-1.5802,-1.58,-1.5797,-1.5776,-1.5788,-1.5772,-1.5757,-1.5772,-1.5755,-1.5754,-1.5743,-1.5741,-1.5737,-1.5735,-1.5734,-1.5724,-1.5723,-1.5723,-1.5723,0,0,0,0,0,0,0,-1.5829,-1.5827,-1.5807,-1.5801,-1.5799,-1.579,-1.5787,-1.5785,-1.5762,-1.577,-1.5768,-1.5765,-1.5742,-1.5738,-1.5736,-1.5734,-1.5724,-1.5723,-1.5723,-1.5723,-1.5738,-1.5739,0,0,0,0,0,0,-1.5833,-1.5828,-1.5808,-1.5806,-1.5811,-1.5791,-1.5787,-1.5784,-1.5762,-1.5758,-1.5766,-1.5763,-1.5739,-1.5737,-1.5735,-1.5746,-1.5723,-1.5723,-1.5722,-1.5737,-1.5738,-1.5739,0,0,0,0,0,0,-1.5834,-1.5832,-1.5809,-1.5817,-1.5813,-1.5791,-1.5788,-1.5783,-1.5779,-1.5758,-1.5754,-1.5766,-1.5738,-1.5736,-1.5736,-1.5744,-1.5722,-1.5722,-1.5737,-1.5738,-1.5739,-1.5768,0,0,0,0,0,0,-1.5835,-1.5832,-1.5837,-1.5817,-1.5813,-1.5811,-1.5788,-1.5783,-1.5779,-1.5776,-1.5757,-1.5754,-1.5738,-1.5737,-1.5736,-1.5743,-1.5722,-1.5736,-1.5737,-1.5738,-1.5766,-1.577,-1.5774,0,0,0,0,0,-1.5836,-1.5847,-1.5837,-1.5835,-1.5818,-1.5811,-1.5809,-1.579,-1.578,-1.5783,-1.577,-1.5754,-1.5744,-1.5737,-1.5736,-1.5743,-1.5735,-1.5737,-1.5738,-1.5765,-1.577,-1.5773,0,0,0,0,0,0,-1.5868,-1.5844,-1.5833,-1.5837,-1.5827,-1.5806,-1.581,-1.5796,-1.5789,-1.5786,-1.5764,-1.576,-1.5762,-1.5753,-1.5746,-1.5753,-1.5737,-1.5739,-1.5758,-1.5762,-1.5766,-1.5767,-1.5721,0,0,0,0,0,-1.5876,-1.5873,-1.5852,-1.5858,-1.5853,-1.5833,-1.5829,-1.5816,-1.5804,-1.5799,-1.5786,-1.5775,-1.5769,-1.5765,-1.5759,-1.5766,-1.576,-1.577,-1.5773,-1.5776,-1.5777,-1.5778,-1.5782,-1.5744,-1.5744,-1.5744,0,0,-1.5891,-1.5878,-1.5877,-1.5864,-1.5854,-1.5851,-1.5829,-1.5827,-1.5824,-1.5799,-1.5798,-1.5788,-1.5774,-1.5777,-1.5777,-1.5769,-1.5787,-1.5778,-1.5781,-1.578,-1.578,-1.5784,-1.5787,-1.5745,-1.5745,-1.5745,0,0,-1.5918,-1.5908,-1.5911,-1.5901,-1.5887,-1.5873,-1.5874,-1.5855,-1.5847,-1.5846,-1.5826,-1.5823,-1.5814,-1.5804,-1.5798,-1.5821,-1.5806,-1.582,-1.5837,-1.5839,-1.5842,-1.5844,-1.585,-1.5853,-1.5821,-1.5821,-1.5821,0,-1.5938,-1.5933,-1.5914,-1.5913,-1.5907,-1.5884,-1.5886,-1.5878,-1.5863,-1.5859,-1.585,-1.5837,-1.5827,-1.5826,-1.5831,-1.5828,-1.5827,-1.5821,-1.5843,-1.5845,-1.5847,-1.5853,-1.5855,-1.5823,-1.5822,-1.5822,-1.5822,0,-1.5959,-1.5956,-1.596,-1.5944,-1.5939,-1.594,-1.5921,-1.5918,-1.5905,-1.5893,-1.5891,-1.5877,-1.5867,-1.5866,-1.5854,-1.5864,-1.5859,-1.5847,-1.5831,-1.5853,-1.5857,-1.586,-1.5825,-1.5824,-1.5824,-1.5823,0,0,-1.6003,-1.5977,-1.5979,-1.5971,-1.5954,-1.595,-1.595,-1.594,-1.5937,-1.5927,-1.5926,-1.5918,-1.5907,-1.59,-1.5887,-1.5888,-1.5905,-1.5875,-1.5875,-1.588,-1.5913,-1.592,-1.5923,-1.5895,-1.5896,-1.5896,-1.5913,0,-1.6025,-1.6022,-1.6005,-1.6007,-1.6003,-1.5981,-1.5981,-1.597,-1.5958,-1.5953,-1.594,-1.5934,-1.592,-1.5916,-1.5917,-1.5903,-1.5911,-1.5901,-1.5892,-1.5892,-1.5894,-1.5926,-1.5935,-1.5952,-1.5915,-1.5916,-1.5916,0,-1.6049,-1.604,-1.6042,-1.6024,-1.6021,-1.6021,-1.601,-1.6005,-1.5992,-1.5983,-1.5976,-1.5961,-1.5958,-1.5944,-1.594,-1.5934,-1.593,-1.5922,-1.5923,-1.592,-1.5904,-1.5923,-1.5957,-1.5959,-1.5919,-1.5919,-1.5918,0,-1.6079,-1.6068,-1.6067,-1.6061,-1.604,-1.604,-1.6031,-1.6018,-1.6012,-1.6003,-1.5999,-1.5989,-1.5984,-1.5977,-1.5959,-1.5951,-1.5956,-1.5941,-1.5948,-1.5948,-1.5949,-1.5948,-1.5981,-1.5949,-1.5949,-1.5949,-1.5949,0,-1.6104,-1.6106,-1.608,-1.6079,-1.608,-1.606,-1.6062,-1.6051,-1.6039,-1.6035,-1.6016,-1.6013,-1.5991,-1.5986,-1.5972,-1.597,-1.5968,-1.596,-1.5956,-1.5961,-1.5961,-1.5956,-1.5954,-1.5949,-1.5949,-1.5949,-1.5949,0,-1.6137,-1.612,-1.6117,-1.6097,-1.6092,-1.6094,-1.6077,-1.6075,-1.6062,-1.6058,-1.6056,-1.6036,-1.6028,-1.601,-1.5998,-1.5989,-1.5989,-1.5984,-1.5994,-1.5991,-1.5998,-1.5997,-1.6027,-1.6029,-1.5997,-1.5998,-1.5998,0,-1.6153,-1.6153,-1.6133,-1.613,-1.6121,-1.6116,-1.611,-1.6091,-1.6086,-1.6071,-1.6071,-1.6061,-1.6053,-1.6042,-1.6026,-1.6016,-1.6008,-1.602,-1.6007,-1.6011,-1.6006,-1.6006,-1.6005,-1.6022,-1.6022,-1.6023,-1.6023,0,-1.6182,-1.6174,-1.6166,-1.6156,-1.615,-1.6141,-1.6131,-1.6129,-1.6107,-1.6102,-1.6094,-1.6088,-1.6075,-1.6066,-1.6053,-1.6044,-1.6029,-1.6027,-1.6028,-1.6032,-1.6037,-1.6033,-1.6,-1.6026,-1.6026,-1.6026,-1.6026,-1.6026,-1.6205,-1.6204,-1.619,-1.6182,-1.6173,-1.6164,-1.6161,-1.6148,-1.6141,-1.6129,-1.6118,-1.6111,-1.6097,-1.6079,-1.607,-1.6064,-1.6057,-1.6058,-1.6058,-1.6058,-1.606,-1.604,-1.6062,-1.6062,-1.6062,-1.6062,-1.6061,0,-1.6232,-1.6222,-1.6215,-1.6202,-1.6196,-1.6183,-1.6172,-1.6167,-1.6161,-1.6149,-1.6141,-1.6131,-1.6122,-1.6106,-1.6095,-1.6093,-1.6086,-1.6091,-1.609,-1.6087,-1.6068,-1.6067,-1.6096,-1.6096,-1.6096,-1.6096,-1.6096,-1.6096,-1.6245,-1.6243,-1.6233,-1.6225,-1.6215,-1.6207,-1.6201,-1.6193,-1.6183,-1.6173,-1.6165,-1.6155,-1.6141,-1.6129,-1.612,-1.6115,-1.6111,-1.6118,-1.6111,-1.6092,-1.6089,-1.6086,-1.6085,-1.6117,-1.6117,-1.6131,-1.6131,-1.6131]},{"header":{"parameterUnit":"m.s-1","parameterCategory":1,"la1":30.2991,"la2":30.254,"lo1":-89.0895,"lo2":-89.0444,"dy":0.0017,"dx":0.0017,"nx":28,"ny":28,"refTime":"2024-02-11T03:00:00:Z","depth":0,"parameterNumber":3,"parameterNumberName":"V-component_of_WINDS"},"data":[0,0,0,0,0,0,0,0,0,0,0,0,0,0,0,0,0,0,0,0,0,0,0,0,0,0,0,0,0,0,0,0,0,0,0,0,0,0,0,0,0,0,0,0,0,0,0,0,0,0,0,0,0,0,0,0,0,0,2.6045,2.6046,0,2.615,2.6151,2.6152,2.6156,2.6155,2.6153,2.6152,2.6261,2.6265,2.6269,0,0,0,0,0,0,0,0,0,0,0,0,0,2.585,2.5854,2.6045,2.6046,2.6048,2.6149,2.6151,2.6152,2.6156,2.6154,2.6153,2.6151,2.6259,2.6264,2.6269,0,0,0,0,0,0,0,0,0,0,0,0,0,2.5943,2.5855,2.6045,2.6062,2.6064,2.6149,2.6151,2.6153,2.6156,2.6154,2.6153,2.6151,2.6258,2.6264,2.627,2.6345,0,0,2.6288,2.6291,0,0,0,0,0,0,0,0,2.5938,2.595,2.6058,2.6061,2.6064,2.6138,2.6122,2.6217,2.6157,2.6121,2.6152,2.615,2.6221,2.623,2.6254,2.635,2.6355,2.6289,2.6292,2.6295,2.6297,0,0,0,0,0,0,0,2.5931,2.5945,2.6086,2.6059,2.6063,2.6065,2.6076,2.614,2.6181,2.6124,2.6125,2.6137,2.6223,2.6248,2.6257,2.6357,2.6289,2.6294,2.6298,2.63,2.6522,2.6524,0,0,0,0,0,0,2.5921,2.594,2.6083,2.609,2.5995,2.607,2.6082,2.6116,2.618,2.6188,2.6139,2.6137,2.6239,2.625,2.6261,2.6355,2.6295,2.6301,2.6304,2.6519,2.6522,2.6524,0,0,0,0,0,0,2.5917,2.5934,2.6079,2.6015,2.6034,2.6075,2.6113,2.6119,2.6145,2.6191,2.6198,2.6157,2.6238,2.6252,2.6324,2.6359,2.6304,2.6309,2.6517,2.652,2.6523,2.6543,0,0,0,0,0,0,2.5911,2.5932,2.5961,2.6016,2.6037,2.6141,2.6115,2.6122,2.6155,2.6154,2.621,2.6218,2.6237,2.6315,2.6331,2.6366,2.6314,2.6514,2.6518,2.6522,2.654,2.6547,2.6553,0,0,0,0,0,2.5904,2.5962,2.5962,2.598,2.6074,2.6143,2.6155,2.6176,2.6158,2.6188,2.6217,2.6216,2.6352,2.6323,2.634,2.6378,2.6512,2.6517,2.6522,2.6537,2.6546,2.6553,0,0,0,0,0,0,2.5911,2.597,2.5971,2.6048,2.609,2.6143,2.6181,2.6184,2.6233,2.6229,2.6253,2.6266,2.6338,2.6365,2.6331,2.6455,2.643,2.6439,2.6435,2.6444,2.6451,2.6444,2.6319,0,0,0,0,0,2.5922,2.5972,2.6021,2.6085,2.6106,2.614,2.617,2.6183,2.6228,2.6246,2.6281,2.6325,2.6378,2.6412,2.6463,2.6543,2.6556,2.6577,2.6584,2.6589,2.6597,2.6643,2.6654,2.6541,2.6541,2.6541,0,0,2.5944,2.5982,2.6013,2.6087,2.6121,2.6174,2.6155,2.6211,2.6251,2.6254,2.6326,2.6353,2.6403,2.648,2.6516,2.6505,2.6631,2.6596,2.6599,2.6605,2.6649,2.666,2.667,2.6544,2.6544,2.6543,0,0,2.6013,2.6046,2.6103,2.6138,2.619,2.6212,2.6226,2.6278,2.6297,2.6368,2.6372,2.642,2.6509,2.6546,2.6576,2.6658,2.666,2.6674,2.6709,2.6754,2.6763,2.6771,2.6802,2.6813,2.6681,2.6681,2.6681,0,2.6035,2.6114,2.6133,2.619,2.6223,2.6227,2.6287,2.6319,2.6385,2.6408,2.6394,2.6508,2.6542,2.6629,2.6649,2.6673,2.669,2.6669,2.676,2.6768,2.6776,2.6806,2.6818,2.6683,2.6683,2.6683,2.6682,0,2.6139,2.6193,2.6234,2.6297,2.6335,2.6392,2.6421,2.6456,2.6465,2.6489,2.6562,2.6603,2.6664,2.6684,2.6693,2.6773,2.6764,2.6755,2.6731,2.6788,2.6817,2.6828,2.6685,2.6685,2.6684,2.6684,0,0,2.6216,2.6289,2.6304,2.6334,2.6391,2.6434,2.6492,2.655,2.6581,2.6626,2.6677,2.6752,2.6744,2.6779,2.6792,2.683,2.6895,2.6816,2.6818,2.6831,2.6987,2.6996,2.7009,2.6895,2.6898,2.6899,2.6984,0,2.6293,2.6396,2.6415,2.6505,2.6557,2.6562,2.6613,2.6654,2.6678,2.6725,2.6751,2.6806,2.679,2.6811,2.6849,2.6879,2.6927,2.6873,2.6944,2.6946,2.6934,2.7024,2.7033,2.711,2.6995,2.6997,2.6998,0,2.6396,2.6444,2.654,2.6591,2.6613,2.6659,2.6714,2.6759,2.6806,2.6821,2.6859,2.6868,2.6929,2.69,2.6985,2.6948,2.6978,2.6997,2.7001,2.701,2.6977,2.7038,2.7135,2.7148,2.7016,2.7014,2.7013,0,2.6446,2.6534,2.6603,2.6628,2.6689,2.6721,2.6748,2.6792,2.6827,2.6875,2.6898,2.6952,2.6983,2.7026,2.7049,2.7025,2.7134,2.7106,2.7149,2.7149,2.7174,2.7172,2.728,2.7189,2.7188,2.7188,2.7188,0,2.6531,2.659,2.6626,2.6669,2.6735,2.6756,2.6822,2.6848,2.6888,2.6937,2.6943,2.6989,2.7016,2.7066,2.7084,2.7153,2.7166,2.7181,2.7186,2.7182,2.718,2.7204,2.72,2.7191,2.7191,2.719,2.719,0,2.6599,2.6626,2.6702,2.6753,2.6767,2.6814,2.6858,2.69,2.6923,2.6985,2.7,2.7037,2.7096,2.7123,2.7195,2.7208,2.7287,2.7287,2.7272,2.7274,2.7316,2.7313,2.7445,2.7464,2.7357,2.7358,2.7359,0,2.6653,2.6698,2.6754,2.6787,2.6815,2.6868,2.6903,2.6925,2.6961,2.7018,2.7053,2.7112,2.7161,2.7255,2.7288,2.7344,2.7347,2.7389,2.7355,2.735,2.735,2.7348,2.7354,2.7396,2.7397,2.7398,2.7398,0,2.6746,2.6757,2.6807,2.6862,2.6903,2.6947,2.6991,2.7017,2.7046,2.7087,2.7147,2.7185,2.7259,2.7318,2.7376,2.7404,2.7407,2.7408,2.7422,2.742,2.741,2.7418,2.7291,2.7406,2.7405,2.7405,2.7404,2.7404,2.6811,2.6852,2.6898,2.6954,2.6988,2.7029,2.7071,2.7099,2.715,2.7212,2.7222,2.7286,2.7332,2.741,2.7441,2.7492,2.7482,2.7501,2.7506,2.7511,2.7515,2.7399,2.7502,2.7502,2.7502,2.7502,2.7502,0,2.6907,2.6936,2.6987,2.7047,2.7091,2.7089,2.7137,2.7174,2.7231,2.7273,2.7321,2.739,2.7447,2.7485,2.7543,2.7577,2.758,2.7592,2.7591,2.7598,2.7519,2.7503,2.7589,2.7588,2.7588,2.7588,2.7588,2.7588,2.6962,2.7032,2.7048,2.7136,2.7165,2.7228,2.7256,2.7294,2.7328,2.7406,2.7453,2.7477,2.7518,2.7579,2.7632,2.7641,2.7663,2.7676,2.7686,2.7612,2.7603,2.7594,2.7579,2.768,2.768,2.776,2.7761,2.7762]}]]